Date,TemperatureHighF,TemperatureAvgF,TemperatureLowF,DewpointHighF,DewpointAvgF,DewpointLowF,HumidityHigh,HumidityAvg,HumidityLow,PressureMaxIn,PressureMinIn,WindSpeedMaxMPH,WindSpeedAvgMPH,GustSpeedMaxMPH,PrecipitationSumIn
2013-1-1,28.2,26.8,26.0,27.0,25.8,24.9,96,96,95,30.23,30.06,7,2,12,0.00
2013-1-2,32.9,29.3,27.2,31.6,28.3,26.2,97,96,93,30.41,30.08,5,0,9,0.00
2013-1-3,41.6,33.8,21.8,37.6,30.6,20.6,97,88,75,30.51,30.30,11,2,17,0.00
2013-1-4,49.9,44.7,41.0,41.1,38.5,35.1,88,79,59,30.30,30.03,17,6,28,0.00
2013-1-5,49.7,43.4,31.3,43.3,36.0,24.8,95,76,55,30.14,29.91,15,5,25,0.00
2013-1-6,37.2,34.6,32.7,33.9,27.9,24.7,95,77,65,30.17,29.97,9,2,16,0.04
2013-1-7,36.8,31.3,25.6,32.7,24.6,18.5,94,77,56,30.40,30.00,6,1,12,0.00
2013-1-8,30.2,24.4,14.1,25.4,19.5,11.6,93,82,64,30.40,30.21,8,1,10,0.03
2013-1-9,29.0,26.9,24.1,27.2,25.1,22.7,95,93,90,30.23,30.12,6,1,9,0.02
2013-1-10,32.5,27.5,23.9,31.5,26.4,22.7,96,95,95,30.12,29.76,6,1,9,0.02
2013-1-11,37.9,32.6,27.5,35.9,29.5,23.1,97,88,77,29.98,29.74,11,4,18,0.00
2013-1-12,33.4,27.9,23.8,25.9,22.7,20.0,92,81,63,30.10,29.98,8,2,13,0.00
2013-1-13,29.7,28.1,25.9,27.0,25.8,24.2,95,91,86,30.13,30.08,10,2,15,0.01
2013-1-14,35.2,31.4,27.2,33.6,29.2,23.8,95,91,85,30.09,29.88,14,4,26,0.44
2013-1-15,38.0,34.9,32.8,37.0,33.9,31.8,97,96,94,29.91,29.70,7,1,14,0.12
2013-1-16,37.2,34.6,32.6,36.7,33.7,31.3,98,96,93,29.70,29.55,5,1,9,0.21
2013-1-17,35.7,33.9,32.9,35.2,33.1,32.1,98,97,96,29.69,29.53,4,0,6,0.04
2013-1-18,34.2,32.7,29.0,32.7,31.4,28.0,97,95,88,29.66,29.50,5,1,8,0.29
2013-1-19,29.9,27.3,25.9,27.9,25.2,23.7,96,91,85,29.63,29.48,0,0,0,0.00
2013-1-20,35.0,31.1,27.6,34.2,29.9,25.3,97,96,91,29.62,29.51,7,1,13,0.00
2013-1-21,41.7,37.4,34.5,41.2,36.7,33.7,98,97,97,29.51,29.40,7,1,12,0.06
2013-1-22,36.1,32.5,29.1,35.6,31.2,27.5,98,95,90,29.64,29.42,8,2,12,0.03
2013-1-23,33.4,29.4,26.4,30.2,27.6,25.2,95,93,87,29.84,29.63,6,1,9,0.18
2013-1-24,33.6,30.3,25.4,32.6,28.9,23.3,97,94,88,29.83,29.72,10,2,16,0.00
2013-1-25,33.4,29.0,25.6,26.3,23.2,19.8,93,79,70,29.96,29.74,8,2,14,0.00
2013-1-26,33.4,27.6,20.4,24.5,22.2,17.2,88,80,68,30.04,29.93,4,1,6,0.00
2013-1-27,30.5,25.1,13.1,27.5,21.4,10.7,93,86,75,30.05,29.90,6,1,9,0.00
2013-1-28,33.2,30.5,28.0,30.8,28.5,26.3,94,92,88,30.13,29.90,6,1,10,0.05
2013-1-29,36.8,29.8,17.6,35.3,27.8,15.9,96,93,85,30.16,30.00,7,1,13,0.01
2013-1-30,42.4,38.8,35.4,41.9,38.0,34.4,98,97,96,30.00,29.80,5,1,9,0.08
2013-1-31,49.2,44.7,38.5,45.4,36.0,30.1,98,73,53,30.02,29.78,17,6,26,0.01
2013-2-1,50.6,45.1,39.4,36.9,35.0,31.2,79,68,52,29.85,29.49,16,5,25,0.00
2013-2-2,44.7,41.8,38.3,43.4,38.6,34.9,96,89,74,29.48,29.25,10,3,20,0.31
2013-2-3,39.2,35.2,32.1,36.2,31.8,24.9,94,87,73,29.94,29.43,10,4,18,0.11
2013-2-4,37.9,33.4,27.0,33.0,29.3,23.5,95,85,75,29.94,29.89,9,3,15,0.02
2013-2-5,42.5,38.0,34.4,36.6,34.4,32.5,94,87,78,29.93,29.60,10,3,15,0.00
2013-2-6,38.0,36.5,33.1,36.7,34.9,32.1,96,94,89,29.60,29.43,6,1,9,0.39
2013-2-7,34.7,33.2,29.3,33.8,31.6,26.1,97,94,87,29.74,29.40,8,2,15,0.33
2013-2-8,37.2,28.7,21.3,28.8,24.9,19.3,94,86,69,29.85,29.74,7,1,10,0.00
2013-2-9,33.9,26.2,18.0,28.6,23.6,16.3,95,90,74,29.94,29.85,5,1,7,0.02
2013-2-10,30.8,29.0,26.6,29.2,27.4,25.1,95,94,91,29.92,29.83,6,1,8,0.20
2013-2-11,33.3,27.1,23.9,28.3,25.0,22.0,95,92,76,29.95,29.88,9,2,14,0.00
2013-2-12,36.8,31.9,24.5,33.6,28.0,22.5,93,85,78,29.91,29.82,14,6,23,0.12
2013-2-13,42.8,38.1,35.0,37.8,34.5,32.7,93,87,76,30.03,29.87,10,1,16,0.02
2013-2-14,37.8,35.2,31.7,36.6,34.0,30.3,97,95,93,30.12,30.03,3,0,4,0.05
2013-2-15,43.5,37.6,34.1,39.3,35.7,33.3,98,93,84,30.10,30.03,4,0,5,0.00
2013-2-16,44.4,36.3,28.0,37.0,32.9,26.2,96,88,70,30.17,30.10,8,1,13,0.00
2013-2-17,35.8,33.6,28.1,32.3,31.1,26.2,96,91,85,30.20,30.16,4,0,7,0.00
2013-2-18,38.2,33.5,28.2,33.0,30.1,26.2,94,87,79,30.18,30.10,5,1,8,0.00
2013-2-19,40.6,34.0,29.7,32.5,30.2,27.8,95,86,61,30.10,29.85,10,3,15,0.03
2013-2-20,38.7,33.8,26.9,33.0,28.9,23.4,95,83,66,30.06,29.84,11,3,18,0.03
2013-2-21,37.6,30.0,20.7,27.5,23.1,17.3,94,77,44,30.08,29.95,7,1,9,0.00
2013-2-22,34.1,31.8,28.5,32.8,29.3,23.9,96,91,74,29.95,29.75,9,3,16,0.20
2013-2-23,41.6,37.2,33.5,40.2,36.0,32.5,97,95,92,29.83,29.69,15,6,25,0.33
2013-2-24,44.6,42.9,41.5,43.2,41.0,39.1,96,93,89,29.92,29.78,14,7,22,0.39
2013-2-25,49.2,45.8,41.7,46.2,42.9,39.8,95,90,82,30.13,29.92,10,3,16,0.00
2013-2-26,55.6,46.9,41.1,47.1,42.9,39.5,96,86,71,30.13,30.08,8,1,12,0.00
2013-2-27,49.6,44.0,39.9,42.0,39.7,37.5,94,85,70,30.30,30.13,6,1,9,0.00
2013-2-28,52.1,41.9,34.8,39.2,35.6,31.7,96,80,56,30.32,30.17,6,1,10,0.00
2013-3-1,40.2,36.2,30.0,37.7,33.3,28.5,97,89,82,30.17,30.00,11,3,16,0.00
2013-3-2,46.5,37.8,28.0,31.1,28.0,24.6,87,69,47,30.16,30.05,8,2,13,0.00
2013-3-3,47.4,36.5,25.0,31.4,27.3,22.6,94,71,45,30.13,30.00,11,3,21,0.00
2013-3-4,48.3,35.7,24.6,30.0,25.9,22.0,92,70,43,30.35,30.09,12,1,16,0.00
2013-3-5,51.7,39.7,25.6,28.8,24.7,20.7,89,59,31,30.36,30.14,11,3,17,0.00
2013-3-6,49.4,42.5,34.2,41.2,33.7,27.5,80,71,62,30.14,29.82,5,1,9,0.00
2013-3-7,54.5,49.1,44.3,47.6,44.0,40.3,92,83,75,29.82,29.67,8,2,14,0.00
2013-3-8,56.4,49.9,46.0,50.3,47.1,44.6,96,90,79,29.67,29.59,7,1,13,0.01
2013-3-9,56.1,50.0,47.3,50.4,47.8,44.9,97,92,80,29.59,29.55,6,1,10,0.02
2013-3-10,55.1,49.6,45.9,49.6,46.5,44.0,97,89,75,29.55,29.45,5,1,8,0.05
2013-3-11,57.7,46.3,36.0,47.7,40.2,33.8,97,81,51,29.55,29.45,10,2,20,0.06
2013-3-12,54.7,45.6,33.9,43.5,38.1,31.1,92,76,59,29.56,29.44,9,2,12,0.02
2013-3-13,50.4,46.4,42.6,46.9,44.1,40.1,96,91,84,29.46,29.40,5,1,8,0.10
2013-3-14,45.4,37.7,28.9,44.0,36.1,27.6,95,94,93,29.45,29.26,9,2,14,0.61
2013-3-15,31.2,28.5,25.4,27.5,23.2,18.3,95,81,61,29.90,29.26,12,2,22,0.18
2013-3-16,35.1,28.9,20.2,21.4,19.4,14.2,88,69,44,30.16,29.90,10,2,15,0.00
2013-3-17,35.8,27.6,17.6,23.8,18.9,14.6,93,71,42,30.18,30.02,14,4,20,0.00
2013-3-18,36.9,32.8,28.1,34.7,27.5,18.9,95,81,66,30.02,29.37,16,5,25,0.57
2013-3-19,49.4,40.8,33.4,39.8,35.5,30.0,97,82,55,29.69,29.29,15,5,25,0.05
2013-3-20,58.2,46.3,31.4,41.7,36.5,28.5,92,70,44,29.75,29.69,11,2,17,0.00
2013-3-21,49.7,42.9,35.8,43.2,40.3,32.0,95,91,74,29.76,29.71,14,4,26,0.46
2013-3-22,45.4,37.2,30.5,33.6,29.1,24.8,86,73,53,29.96,29.75,16,7,27,0.00
2013-3-23,35.1,30.3,25.6,27.0,24.6,17.6,92,79,64,30.11,29.95,8,1,13,0.00
2013-3-24,35.6,28.7,22.4,17.4,12.7,9.5,71,52,36,30.19,30.09,9,2,15,0.00
2013-3-25,37.2,31.0,27.7,28.3,18.2,11.0,92,61,43,30.09,29.72,10,3,14,0.20
2013-3-26,32.7,30.0,27.5,28.9,27.2,25.5,93,89,81,29.76,29.68,7,2,12,0.19
2013-3-27,33.7,30.6,27.5,30.5,28.4,25.7,94,91,85,29.94,29.76,5,1,8,0.06
2013-3-28,37.1,33.7,31.2,31.5,29.6,27.4,96,85,70,30.04,29.94,11,3,16,0.00
2013-3-29,37.2,34.9,33.1,35.6,33.1,30.1,95,93,87,29.99,29.73,11,2,17,0.46
2013-3-30,46.7,40.0,33.2,42.3,37.6,32.2,97,91,80,29.74,29.55,9,1,15,0.12
2013-3-31,49.1,42.1,33.2,48.1,40.7,29.1,97,95,85,29.61,29.36,14,4,23,0.38
2013-4-1,45.0,37.2,32.1,30.4,28.5,26.9,86,72,52,29.88,29.61,11,4,22,0.00
2013-4-2,44.2,38.6,32.1,39.2,32.3,27.4,94,79,61,29.88,29.63,9,2,15,0.35
2013-4-3,44.3,41.2,38.0,43.5,40.1,37.2,97,96,93,29.73,29.59,9,2,17,0.22
2013-4-4,43.4,39.3,36.2,38.3,36.5,35.0,97,90,80,29.87,29.71,7,2,10,0.00
2013-4-5,43.8,39.9,33.7,41.7,37.8,31.9,96,92,85,29.85,29.63,8,1,17,0.08
2013-4-6,48.7,43.1,39.3,42.0,39.1,35.1,97,86,71,29.99,29.70,9,2,14,0.00
2013-4-7,46.0,41.2,37.6,39.4,36.5,32.8,94,83,71,30.01,29.91,7,1,10,0.00
2013-4-8,52.9,44.0,36.8,36.0,30.6,26.0,81,60,41,29.93,29.80,9,2,12,0.00
2013-4-9,52.1,45.6,41.1,43.6,40.1,35.8,93,82,65,29.82,29.76,8,2,13,0.00
2013-4-10,57.0,48.0,41.1,48.3,43.4,37.3,96,85,61,29.89,29.75,10,2,17,0.07
2013-4-11,65.8,52.0,33.7,46.7,41.2,32.1,95,69,46,29.94,29.81,13,3,21,0.00
2013-4-12,65.3,56.0,48.5,53.0,47.7,43.8,93,74,53,29.83,29.71,17,5,25,0.06
2013-4-13,62.8,51.3,41.6,48.2,44.3,39.3,96,79,44,30.22,29.82,17,3,32,0.02
2013-4-14,63.7,51.3,35.6,44.8,37.5,32.3,96,64,32,30.34,30.22,10,2,18,0.00
2013-4-15,63.8,51.2,35.2,43.2,38.0,32.8,94,64,37,30.36,30.25,6,1,9,0.00
2013-4-16,68.4,53.5,34.9,41.0,36.3,31.9,91,57,28,30.30,30.20,10,1,14,0.00
2013-4-17,71.2,55.1,37.4,45.7,39.4,33.1,91,60,28,30.25,30.17,6,1,12,0.00
2013-4-18,75.3,59.6,40.5,48.5,41.4,37.0,93,57,26,30.19,30.04,10,1,13,0.00
2013-4-19,75.4,60.7,42.1,46.2,41.1,36.8,86,53,26,30.09,29.98,9,1,14,0.00
2013-4-20,76.2,59.7,43.4,53.6,46.6,39.4,96,66,31,30.09,30.01,11,1,16,0.01
2013-4-21,72.1,61.2,47.2,47.6,45.4,41.5,87,58,39,30.09,29.94,10,2,17,0.00
2013-4-22,73.3,60.9,46.4,49.0,43.0,37.5,79,54,34,29.98,29.90,10,2,15,0.00
2013-4-23,73.5,62.1,47.2,53.2,48.9,43.9,92,64,40,30.20,29.98,10,2,17,0.00
2013-4-24,76.3,63.3,48.5,51.9,46.6,42.2,88,59,31,30.31,30.20,11,2,20,0.00
2013-4-25,80.0,63.2,43.9,51.0,45.4,40.1,89,57,27,30.25,30.12,9,2,13,0.00
2013-4-26,82.5,67.0,46.3,53.2,46.4,41.9,91,53,25,30.13,29.74,12,2,20,0.00
2013-4-27,80.7,70.0,60.7,54.4,49.8,44.7,66,50,36,29.74,29.66,17,5,24,0.00
2013-4-28,77.7,67.3,57.7,56.7,53.7,49.0,86,63,41,29.97,29.70,14,4,22,0.02
2013-4-29,83.8,69.3,55.4,55.7,52.5,49.0,86,59,34,30.05,29.97,17,4,27,0.00
2013-4-30,85.5,70.3,53.7,59.6,54.2,50.0,90,60,33,30.08,29.95,9,1,14,0.00
2013-5-1,84.7,72.1,59.4,59.0,54.7,50.3,79,56,33,30.07,29.99,12,2,18,0.00
2013-5-2,80.8,69.8,57.7,62.1,57.6,52.1,87,66,49,30.03,29.82,12,3,20,0.04
2013-5-3,76.0,64.9,56.2,63.2,58.9,52.8,93,82,59,29.87,29.76,8,2,20,0.06
2013-5-4,70.0,60.5,51.2,55.8,53.0,49.1,94,77,59,30.05,29.85,9,2,15,0.00
2013-5-5,75.8,63.8,49.1,57.5,52.9,46.9,95,70,43,30.14,30.05,6,1,9,0.00
2013-5-6,75.4,65.4,59.7,61.1,55.9,48.9,91,72,51,30.13,30.01,10,2,17,0.11
2013-5-7,72.0,64.3,58.3,63.8,59.2,56.3,94,84,65,30.06,29.97,10,2,16,0.15
2013-5-8,75.7,65.4,55.5,62.2,56.6,52.7,96,75,46,30.04,29.94,6,1,13,0.01
2013-5-9,77.4,65.9,53.6,60.8,54.7,51.6,95,70,43,30.04,29.96,7,1,10,0.00
2013-5-10,79.1,66.5,50.9,56.6,51.3,47.6,93,62,35,29.99,29.82,11,2,21,0.00
2013-5-11,72.2,63.7,56.7,60.6,57.0,50.8,90,79,65,29.86,29.73,8,2,13,0.00
2013-5-12,65.6,59.1,54.3,55.6,52.7,48.4,93,80,65,29.79,29.70,13,4,20,0.00
2013-5-13,62.4,56.0,47.7,48.7,46.7,41.2,88,72,57,29.92,29.78,11,4,21,0.01
2013-5-14,64.1,54.4,43.9,50.3,46.3,40.8,92,75,58,29.94,29.89,7,1,12,0.00
2013-5-15,71.1,60.1,46.8,55.3,50.2,44.3,95,72,52,29.89,29.77,8,2,14,0.00
2013-5-16,74.0,64.3,49.8,57.6,53.9,46.8,93,70,52,29.80,29.66,12,4,17,0.00
2013-5-17,69.0,64.0,55.5,61.1,57.9,52.7,92,81,70,29.74,29.65,19,3,37,0.42
2013-5-18,73.8,63.3,54.0,58.4,53.9,48.4,96,74,41,29.92,29.65,10,3,17,0.01
2013-5-19,79.5,66.9,49.8,58.6,53.3,47.6,94,65,40,29.93,29.73,11,3,21,0.15
2013-5-20,70.1,62.2,53.1,56.5,52.5,44.6,93,73,43,29.92,29.76,10,2,16,0.06
2013-5-21,71.8,61.4,50.7,54.3,49.6,46.3,92,68,44,29.92,29.80,12,2,22,0.00
2013-5-22,68.8,59.6,51.8,55.1,51.1,47.3,87,74,52,29.80,29.64,9,2,20,0.00
2013-5-23,62.2,56.0,49.8,50.9,48.2,44.4,93,76,63,29.69,29.55,10,2,15,0.00
2013-5-24,65.9,56.6,50.0,51.9,47.0,44.1,87,71,52,29.72,29.59,7,1,12,0.00
2013-5-25,65.0,55.8,49.0,50.7,47.2,44.6,94,74,49,29.75,29.69,9,2,14,0.02
2013-5-26,61.4,53.4,49.7,51.5,47.0,40.8,90,79,56,29.77,29.69,8,1,13,0.06
2013-5-27,56.6,51.6,45.9,48.1,43.6,39.1,87,74,66,29.81,29.76,9,2,14,0.02
2013-5-28,68.7,56.9,46.5,56.5,49.1,42.6,89,76,56,29.81,29.68,10,2,20,0.01
2013-5-29,74.2,61.1,49.4,57.9,52.5,46.4,92,75,53,29.69,29.55,10,2,15,0.00
2013-5-30,64.2,59.3,52.8,61.2,55.6,49.4,95,88,79,29.54,29.44,8,3,16,0.39
2013-5-31,62.9,54.4,47.7,53.8,50.1,45.8,93,86,67,29.60,29.52,9,2,18,0.19
2013-6-1,66.2,54.8,42.2,56.5,49.6,40.8,97,84,61,29.70,29.60,8,1,12,0.02
2013-6-2,67.3,58.3,49.3,55.3,51.0,47.3,95,78,51,29.84,29.68,7,1,13,0.00
2013-6-3,62.1,56.4,51.9,54.1,51.5,48.4,91,84,73,29.89,29.83,11,4,22,0.00
2013-6-4,66.1,60.4,52.1,59.9,56.9,49.3,94,88,74,29.92,29.83,8,1,16,0.18
2013-6-5,68.3,60.5,53.9,61.4,56.8,52.5,96,88,72,30.02,29.91,5,0,9,0.02
2013-6-6,70.0,61.0,53.0,62.9,57.8,51.3,96,89,76,30.06,30.00,6,0,9,0.14
2013-6-7,77.5,65.5,55.2,61.6,57.8,53.8,97,78,50,30.03,29.94,9,1,14,0.00
2013-6-8,79.4,66.5,55.5,62.4,58.6,53.3,95,78,47,29.98,29.86,12,1,21,0.14
2013-6-9,81.1,70.2,55.0,66.3,59.4,53.6,97,71,49,29.88,29.75,7,1,12,0.00
2013-6-10,80.5,69.3,60.0,63.6,60.3,57.1,94,75,48,29.78,29.65,19,2,35,0.27
2013-6-11,73.3,62.5,56.0,62.7,58.0,52.2,97,86,61,29.86,29.72,8,1,16,0.02
2013-6-12,75.4,64.2,51.7,59.1,54.4,49.5,94,72,52,30.06,29.86,9,2,15,0.00
2013-6-13,79.0,67.2,51.6,58.4,54.3,49.4,95,66,40,30.08,29.98,8,1,13,0.00
2013-6-14,81.5,70.1,53.9,61.9,57.6,51.9,96,68,40,30.01,29.94,7,1,12,0.00
2013-6-15,84.0,71.8,58.0,65.8,60.8,55.7,95,71,42,29.98,29.91,6,1,12,0.00
2013-6-16,84.2,73.1,60.6,68.0,63.3,58.6,95,73,51,30.01,29.95,5,1,8,0.00
2013-6-17,89.4,76.6,60.6,70.4,65.3,58.6,96,71,46,30.02,29.96,6,0,8,0.00
2013-6-18,92.3,79.4,64.1,71.9,65.8,61.8,95,67,38,30.02,29.94,8,1,12,0.00
2013-6-19,92.8,80.9,64.7,71.1,66.6,61.5,92,65,37,29.99,29.92,9,2,17,0.00
2013-6-20,91.1,81.2,69.7,74.2,69.5,64.9,88,69,52,29.98,29.87,10,2,17,0.03
2013-6-21,91.6,82.9,73.5,72.6,68.1,61.6,83,63,37,29.90,29.85,7,2,13,0.00
2013-6-22,90.5,78.8,66.5,74.7,67.5,61.3,94,71,39,29.90,29.80,10,1,16,0.09
2013-6-23,81.0,72.8,66.6,71.6,66.5,62.6,95,81,65,29.87,29.79,7,1,12,0.15
2013-6-24,78.2,66.4,58.1,66.1,61.1,55.8,95,84,64,29.82,29.74,9,2,15,0.17
2013-6-25,60.8,58.3,55.3,57.7,55.4,51.4,94,90,84,29.98,29.77,10,3,17,0.03
2013-6-26,66.4,58.2,53.2,53.8,51.1,49.1,89,78,59,30.17,29.98,12,5,22,0.00
2013-6-27,68.2,58.4,52.0,57.7,52.6,48.2,92,82,62,30.17,30.09,7,2,12,0.00
2013-6-28,71.6,60.6,52.2,57.8,54.5,49.9,95,82,53,30.09,30.00,8,1,12,0.06
2013-6-29,75.0,63.4,55.2,58.4,54.3,48.9,96,75,42,30.02,29.92,8,2,14,0.00
2013-6-30,73.7,63.1,52.6,57.7,53.1,49.1,95,72,47,30.03,29.95,13,3,25,0.00
2013-7-1,73.7,62.1,47.5,52.3,48.5,44.1,92,64,43,30.08,30.03,8,2,14,0.00
2013-7-2,78.8,65.8,48.6,56.3,50.9,46.1,94,63,36,30.10,30.01,6,1,12,0.00
2013-7-3,82.2,69.3,51.2,57.6,53.6,48.3,92,61,37,30.03,29.92,8,1,12,0.00
2013-7-4,86.5,71.5,53.4,61.0,54.4,43.9,93,60,24,30.04,29.97,8,1,15,0.00
2013-7-5,82.2,71.8,58.3,63.7,60.2,54.8,92,68,48,30.13,30.04,8,2,15,0.00
2013-7-6,84.5,73.4,62.0,68.1,62.7,59.3,93,71,50,30.20,30.12,12,2,20,0.01
2013-7-7,85.0,75.2,62.6,64.1,61.4,58.7,89,64,42,30.22,30.15,9,2,14,0.00
2013-7-8,83.3,73.7,62.7,61.3,57.8,54.4,83,59,38,30.24,30.16,8,2,17,0.00
2013-7-9,83.5,73.0,60.4,59.4,56.4,53.5,80,58,40,30.20,30.00,7,2,12,0.00
2013-7-10,85.8,72.8,56.0,61.9,57.0,52.4,91,61,37,30.01,29.80,7,1,12,0.00
2013-7-11,76.2,67.9,57.9,62.2,57.2,50.4,91,70,48,29.93,29.78,11,2,21,0.00
2013-7-12,74.8,65.3,55.4,55.1,52.5,49.7,85,65,46,30.02,29.93,10,3,17,0.00
2013-7-13,75.7,65.6,52.9,56.5,53.0,50.0,93,66,45,30.03,29.98,10,2,17,0.00
2013-7-14,79.8,68.7,56.0,56.2,52.4,47.1,88,59,33,30.03,29.96,11,2,20,0.00
2013-7-15,78.3,66.5,55.5,59.1,53.2,47.6,89,65,38,30.08,29.95,12,2,21,0.00
2013-7-16,79.9,67.1,51.8,54.4,51.3,47.5,88,60,36,30.16,30.07,8,1,13,0.00
2013-7-17,83.9,70.2,54.5,59.6,54.9,50.8,90,62,36,30.17,30.08,6,1,9,0.00
2013-7-18,84.4,72.6,57.4,62.8,58.3,53.6,91,64,41,30.13,30.05,6,1,10,0.00
2013-7-19,85.5,73.7,65.2,65.8,60.8,57.0,82,66,39,30.07,29.92,5,1,8,0.00
2013-7-20,84.7,71.8,57.2,61.8,56.9,51.6,91,63,37,30.03,29.92,10,2,14,0.00
2013-7-21,81.0,71.2,59.2,53.7,51.2,48.5,75,51,34,30.09,30.02,9,2,16,0.00
2013-7-22,85.1,71.6,53.6,56.9,53.2,48.8,87,55,33,30.09,29.91,7,1,13,0.00
2013-7-23,88.0,73.9,56.3,60.1,53.9,50.0,88,54,28,29.91,29.83,9,2,18,0.00
2013-7-24,88.2,75.0,62.2,56.5,50.4,40.6,74,46,19,29.94,29.86,9,2,17,0.00
2013-7-25,80.9,69.5,56.6,61.6,55.4,47.9,82,62,47,29.98,29.91,5,0,8,0.00
2013-7-26,88.0,74.3,57.8,62.9,58.7,54.6,92,62,36,29.99,29.90,7,1,12,0.00
2013-7-27,91.5,77.5,61.8,65.8,61.4,56.7,86,61,38,29.93,29.86,7,1,12,0.00
2013-7-28,96.0,82.2,66.0,69.4,61.8,56.9,89,55,28,29.94,29.88,10,2,17,0.00
2013-7-29,97.1,84.6,69.1,67.0,62.0,52.3,73,49,31,29.93,29.76,10,2,20,0.00
2013-7-30,83.7,74.5,68.5,66.2,59.1,52.2,86,60,34,29.99,29.80,16,6,26,0.05
2013-7-31,84.5,74.0,61.8,60.1,56.5,53.6,83,56,36,30.02,29.95,9,2,17,0.00
2013-8-1,86.0,74.4,61.7,61.8,58.8,55.7,85,61,37,30.06,29.98,6,1,12,0.00
2013-8-2,91.2,77.2,61.3,63.3,59.2,56.5,88,58,32,30.06,29.95,14,1,20,0.00
2013-8-3,95.3,79.2,60.9,63.3,59.1,52.5,87,55,26,29.98,29.91,8,1,12,0.00
2013-8-4,91.5,80.0,67.4,62.3,59.1,53.0,77,51,33,30.07,29.96,7,1,12,0.00
2013-8-5,91.7,79.6,67.4,65.2,60.6,56.1,81,55,33,30.10,29.96,9,2,14,0.00
2013-8-6,95.1,80.4,63.0,65.8,60.5,56.7,86,55,29,30.01,29.90,5,1,9,0.00
2013-8-7,96.2,83.1,66.0,65.2,59.8,56.3,81,49,27,29.95,29.88,7,1,12,0.00
2013-8-8,98.5,84.6,66.1,64.6,59.2,56.3,78,46,25,29.96,29.88,8,2,13,0.00
2013-8-9,97.3,83.7,66.9,65.7,59.7,55.5,79,48,26,29.92,29.75,6,1,13,0.00
2013-8-10,77.5,70.8,66.7,65.7,61.5,56.8,84,73,58,29.94,29.82,14,5,24,0.02
2013-8-11,84.3,72.4,62.3,59.5,52.4,43.6,74,53,25,29.98,29.91,8,2,15,0.00
2013-8-12,85.7,71.2,55.7,59.4,53.2,49.1,85,57,30,30.03,29.92,8,1,15,0.00
2013-8-13,86.8,71.9,57.9,59.4,55.6,52.4,83,59,35,30.01,29.90,10,2,20,0.02
2013-8-14,74.4,66.7,59.8,61.5,55.4,47.0,92,70,40,30.13,29.98,9,1,16,0.03
2013-8-15,76.3,63.8,51.1,56.8,51.6,47.0,95,68,37,30.19,30.12,6,0,9,0.01
2013-8-16,80.4,65.6,48.0,51.9,47.7,43.8,91,58,28,30.19,30.07,7,1,12,0.00
2013-8-17,84.6,64.9,49.7,54.2,48.4,45.2,88,61,28,30.09,30.00,5,1,12,0.00
2013-8-18,64.4,56.7,52.4,54.0,48.5,46.4,84,74,60,30.04,30.01,0,0,2,0.00
2013-8-19,89.5,82.5,78.5,51.5,50.2,49.1,38,33,26,29.90,29.87,6,3,12,0.00
2013-8-20,78.5,71.2,66.0,63.4,60.4,50.1,82,70,38,30.09,29.89,10,4,17,0.00
2013-8-21,76.1,68.2,60.6,65.2,60.8,58.1,94,78,61,30.14,30.08,8,1,12,0.38
2013-8-22,77.7,67.7,56.6,61.0,56.6,51.2,93,70,45,30.11,30.00,11,1,15,0.00
2013-8-23,80.1,68.9,53.9,57.7,52.7,49.8,90,58,39,30.05,29.95,9,1,15,0.00
2013-8-24,77.7,68.6,57.0,56.7,53.0,50.0,82,59,43,29.99,29.87,9,1,15,0.00
2013-8-25,78.3,68.3,60.9,61.3,54.8,51.7,87,64,41,29.89,29.79,8,1,13,0.02
2013-8-26,70.2,64.5,60.5,63.8,60.7,57.8,95,87,75,29.91,29.83,9,1,14,0.69
2013-8-27,72.5,64.6,59.0,60.8,59.1,57.8,96,83,63,29.94,29.86,4,1,8,0.01
2013-8-28,70.8,63.6,58.7,62.5,58.9,55.8,95,85,65,29.90,29.83,8,1,14,0.43
2013-8-29,75.7,64.8,58.4,61.2,57.9,53.4,96,80,48,30.08,29.90,8,1,14,0.30
2013-8-30,74.0,64.2,55.8,58.2,55.5,49.6,94,76,46,30.10,30.04,5,1,9,0.00
2013-8-31,77.3,63.6,50.0,59.4,52.8,48.3,96,72,39,30.09,30.02,7,1,12,0.00
2013-9-1,73.6,64.4,53.5,59.9,55.2,48.9,92,73,54,30.14,30.01,12,2,21,0.00
2013-9-2,69.5,58.9,45.9,51.3,46.8,43.7,95,67,44,30.19,30.08,9,2,16,0.00
2013-9-3,72.8,64.9,54.9,60.0,53.1,47.3,80,66,50,30.21,30.01,13,5,26,0.00
2013-9-4,73.7,59.5,44.7,53.0,47.3,42.2,95,68,35,30.26,30.16,7,1,12,0.00
2013-9-5,74.8,61.1,47.7,53.7,49.5,44.9,92,69,42,30.17,30.02,9,1,16,0.00
2013-9-6,74.3,62.8,48.0,53.3,49.3,44.1,92,63,42,30.06,29.98,9,1,15,0.00
2013-9-7,76.8,61.3,46.1,52.8,47.8,42.7,92,65,35,30.15,30.05,4,0,9,0.00
2013-9-8,78.1,63.4,47.2,54.0,48.9,44.1,92,63,35,30.21,30.10,6,1,9,0.00
2013-9-9,63.9,59.5,54.0,57.2,52.6,47.3,93,79,57,30.11,30.01,6,0,10,0.17
2013-9-10,68.8,59.7,51.1,61.3,55.8,49.7,96,88,69,30.09,29.95,6,1,9,0.01
2013-9-11,63.9,57.8,49.4,57.8,53.9,46.6,96,88,62,29.96,29.89,9,1,17,0.25
2013-9-12,67.6,57.5,47.6,53.8,49.9,45.7,96,78,49,29.95,29.89,6,0,12,0.00
2013-9-13,64.4,57.3,52.6,52.7,49.5,47.6,88,76,59,29.99,29.93,9,2,15,0.00
2013-9-14,57.8,54.2,50.4,55.0,51.9,48.7,95,92,86,29.98,29.86,8,2,15,0.24
2013-9-15,72.0,59.0,45.6,60.9,53.9,44.3,97,84,62,29.93,29.75,8,1,12,0.01
2013-9-16,72.3,61.9,51.1,62.3,56.6,49.4,96,84,64,29.75,29.53,6,0,12,0.00
2013-9-17,62.6,55.4,47.9,59.7,51.0,41.9,94,85,76,29.66,29.41,16,4,30,0.29
2013-9-18,62.6,53.5,43.5,50.7,45.9,40.8,93,76,51,29.66,29.54,11,2,18,0.00
2013-9-19,61.5,56.3,51.6,53.3,47.3,41.3,90,73,49,29.91,29.54,13,4,27,0.00
2013-9-20,63.2,54.6,42.0,50.2,46.0,39.3,94,74,52,30.01,29.90,8,1,14,0.00
2013-9-21,67.0,58.0,48.2,53.1,50.9,45.4,90,78,58,30.23,30.01,11,3,20,0.00
2013-9-22,66.0,53.2,39.7,51.7,45.9,37.8,96,78,49,30.29,30.16,7,1,10,0.00
2013-9-23,66.7,58.4,49.5,55.5,52.0,46.4,91,79,66,30.16,29.92,14,4,25,0.00
2013-9-24,66.9,61.1,53.3,54.7,52.1,48.4,84,73,63,29.93,29.88,10,4,21,0.00
2013-9-25,66.6,58.2,49.7,53.2,49.5,45.8,92,74,57,29.99,29.87,7,2,12,0.00
2013-9-26,71.8,58.0,50.2,61.0,52.2,45.7,92,82,57,29.93,29.78,11,1,21,0.03
2013-9-27,59.1,49.8,41.4,48.7,44.1,39.2,96,82,59,30.07,29.93,6,1,12,0.00
2013-9-28,62.1,47.7,36.0,47.8,40.4,34.3,96,78,46,30.03,29.94,5,0,9,0.00
2013-9-29,60.7,51.0,38.7,43.9,40.6,36.3,94,69,50,30.00,29.91,8,2,14,0.00
2013-9-30,61.0,53.0,47.2,43.8,40.4,37.6,76,63,49,29.91,29.78,14,3,22,0.00
2013-10-1,61.0,52.5,43.9,43.8,40.9,37.6,81,65,51,29.94,29.78,8,1,12,0.00
2013-10-2,54.4,48.9,36.0,40.0,34.7,27.9,76,59,38,30.33,29.94,10,2,16,0.00
2013-10-3,52.6,41.5,31.2,30.7,27.5,24.4,87,60,37,30.51,30.33,9,2,15,0.00
2013-10-4,52.8,38.4,25.1,31.9,26.5,22.0,91,66,37,30.52,30.42,6,1,9,0.00
2013-10-5,56.9,40.6,25.2,32.1,28.3,22.3,92,65,35,30.43,30.23,8,1,13,0.00
2013-10-6,62.2,46.4,32.9,38.4,34.3,29.2,89,66,36,30.30,30.23,4,0,9,0.00
2013-10-7,65.3,52.8,43.0,43.9,41.3,38.4,86,67,40,30.36,30.29,5,0,8,0.00
2013-10-8,67.5,51.0,36.7,45.6,39.1,34.3,94,68,34,30.35,30.24,7,1,10,0.00
2013-10-9,60.8,52.2,42.0,48.1,43.7,37.5,86,73,57,30.24,30.01,6,1,10,0.00
2013-10-10,56.3,53.5,51.5,52.8,50.7,47.5,94,90,82,30.01,29.88,8,1,15,0.03
2013-10-11,70.5,60.9,53.1,57.5,54.5,51.7,96,81,62,30.06,29.92,11,5,23,0.00
2013-10-12,73.5,62.3,53.0,59.8,56.2,51.0,95,82,60,30.13,30.04,11,1,16,0.09
2013-10-13,69.5,58.9,46.1,61.0,53.6,43.3,97,84,57,30.17,30.06,8,1,12,0.12
2013-10-14,65.0,52.1,40.4,54.4,47.0,38.8,96,84,65,30.18,30.07,6,0,8,0.00
2013-10-15,66.2,54.9,43.7,58.0,50.6,41.5,96,86,65,30.07,29.79,9,1,14,0.01
2013-10-16,50.1,47.7,42.2,48.6,46.2,40.3,95,94,92,29.78,29.59,11,3,20,0.47
2013-10-17,60.4,51.9,43.8,50.1,46.1,41.1,94,81,55,29.95,29.75,12,3,23,0.00
2013-10-18,59.5,51.7,43.6,48.8,45.5,40.1,95,80,62,30.10,29.91,13,3,22,0.06
2013-10-19,56.0,47.9,35.8,45.5,40.9,33.5,95,78,62,30.28,30.11,9,2,14,0.00
2013-10-20,64.5,54.8,42.1,53.9,47.0,39.4,92,76,59,30.25,30.09,9,1,16,0.00
2013-10-21,69.8,56.8,49.1,57.0,51.4,47.2,95,83,61,30.13,30.06,7,0,12,0.00
2013-10-22,64.4,56.2,45.7,58.5,52.8,44.4,97,89,80,30.14,30.08,6,1,12,0.00
2013-10-23,74.4,66.0,60.2,59.2,56.9,54.6,89,74,53,30.08,29.96,15,4,22,0.00
2013-10-24,72.3,62.3,52.7,58.5,55.2,50.1,94,78,60,30.15,30.03,6,1,8,0.00
2013-10-25,73.2,59.8,47.8,59.5,53.6,46.2,96,81,60,30.17,30.09,6,0,9,0.00
2013-10-26,71.0,57.3,47.4,58.3,52.0,45.8,96,83,62,30.12,30.08,7,1,12,0.00
2013-10-27,71.4,56.7,43.4,59.3,51.7,41.8,96,84,63,30.11,29.90,9,1,15,0.00
2013-10-28,69.5,62.4,53.5,60.0,55.3,50.0,92,78,61,30.02,29.88,8,2,14,0.00
2013-10-29,69.3,59.2,49.5,58.4,53.0,47.3,95,80,66,30.05,29.87,8,1,12,0.05
2013-10-30,60.0,52.9,44.4,52.0,46.7,39.6,95,80,60,30.29,30.03,9,2,15,0.07
2013-10-31,59.9,47.4,37.8,45.0,39.6,35.2,93,76,49,30.37,30.28,4,0,7,0.00
2013-11-1,57.8,50.8,40.2,49.2,44.8,37.8,92,80,69,30.29,30.10,4,0,8,0.00
2013-11-2,61.9,55.4,46.5,54.7,51.1,44.1,95,86,73,30.10,29.86,11,2,17,0.00
2013-11-3,63.9,54.1,49.1,58.1,51.0,42.9,97,90,78,29.87,29.59,15,4,31,0.17
2013-11-4,52.9,48.8,41.7,49.9,44.4,39.0,94,85,72,29.90,29.50,11,2,15,0.05
2013-11-5,53.2,49.9,44.7,52.4,48.5,41.2,97,95,87,29.50,29.42,10,2,16,0.46
2013-11-6,55.4,46.0,35.4,44.9,40.3,33.3,95,81,63,29.83,29.46,15,3,26,0.01
2013-11-7,57.4,50.7,45.2,50.6,46.1,40.4,94,84,72,30.02,29.83,10,2,17,0.02
2013-11-8,56.7,49.0,40.8,52.0,46.4,39.2,97,91,83,30.02,29.94,5,0,8,0.00
2013-11-9,58.9,53.2,49.1,52.7,49.8,47.6,95,88,78,29.94,29.83,10,3,15,0.13
2013-11-10,56.5,49.3,45.4,47.7,45.5,43.5,96,87,70,29.82,29.72,6,1,12,0.06
2013-11-11,52.3,50.1,46.7,46.1,43.6,40.2,95,79,67,30.26,29.77,9,2,13,0.02
2013-11-12,56.1,50.2,44.4,45.7,42.4,38.6,89,75,63,30.32,30.26,5,1,9,0.00
2013-11-13,49.9,47.0,44.1,47.9,44.2,41.4,93,90,86,30.27,30.24,9,2,15,0.00
2013-11-14,46.4,44.7,42.5,42.8,40.8,38.8,95,87,79,30.27,30.13,4,0,6,0.00
2013-11-15,49.7,46.3,44.3,43.1,40.0,36.5,89,79,72,30.37,30.14,5,0,10,0.00
2013-11-16,56.9,45.6,35.6,45.6,41.0,33.6,95,85,64,30.39,30.31,3,0,4,0.00
2013-11-17,50.9,41.9,35.4,45.7,39.4,33.6,97,91,79,30.31,30.23,2,0,4,0.01
2013-11-18,43.0,41.6,40.4,41.7,40.5,39.4,97,96,94,30.24,30.06,8,2,12,0.00
2013-11-19,45.3,42.7,39.7,42.2,40.7,38.4,97,93,87,30.06,29.73,12,4,20,0.00
2013-11-20,50.7,46.8,42.2,47.5,44.1,39.9,96,90,82,29.73,29.54,8,2,15,0.18
2013-11-21,47.0,43.2,37.3,46.2,42.2,36.3,97,96,94,29.68,29.58,12,2,18,0.09
2013-11-22,50.8,47.5,45.6,49.3,46.3,44.8,98,96,92,29.75,29.62,6,1,9,0.00
2013-11-23,53.6,48.0,42.6,49.1,45.0,41.1,96,89,82,29.77,29.70,6,1,12,0.01
2013-11-24,47.3,45.5,43.0,45.3,44.1,42.1,97,95,88,29.71,29.66,7,1,12,0.42
2013-11-25,42.9,37.4,35.2,41.7,32.6,27.8,97,83,69,30.05,29.66,13,4,20,0.13
2013-11-26,39.1,34.2,29.7,31.2,28.4,25.2,88,79,65,30.23,30.05,5,1,9,0.00
2013-11-27,40.3,31.5,23.0,26.2,23.3,20.1,89,73,50,30.44,30.23,6,1,10,0.00
2013-11-28,39.1,29.6,19.0,31.6,24.0,17.0,94,81,52,30.43,30.22,11,3,17,0.00
2013-11-29,42.9,37.6,34.4,35.4,32.8,30.6,88,83,73,30.23,30.04,12,4,20,0.00
2013-11-30,36.6,35.3,34.7,31.9,30.8,29.6,86,83,80,30.04,29.99,7,2,14,0.00
2013-12-5,34.6,33.6,32.5,31.1,30.5,29.9,91,88,85,30.03,29.86,7,4,23,0.00
2013-12-6,43.2,37.9,33.2,36.5,29.4,25.4,92,72,56,29.88,29.72,21,8,35,0.04
2013-12-7,37.6,35.0,32.5,30.0,27.1,24.0,86,73,58,30.19,29.87,17,8,34,0.00
2013-12-8,40.8,38.4,34.0,36.1,33.5,28.8,90,82,78,30.33,30.18,10,2,17,0.00
2013-12-9,45.8,43.9,38.7,40.7,37.8,33.3,87,79,67,30.29,30.11,18,8,31,0.00
2013-12-10,44.0,34.8,24.6,40.4,29.2,19.8,91,80,67,30.75,30.25,9,1,13,0.00
2013-12-11,37.3,30.0,23.6,27.4,23.6,19.5,89,78,60,30.74,30.59,6,1,9,0.00
2013-12-12,35.7,33.7,31.6,31.4,29.8,27.3,93,86,78,30.59,30.42,5,0,7,0.00
2013-12-13,33.1,31.5,29.7,31.3,29.7,27.9,94,93,92,30.42,30.33,4,0,6,0.00
2013-12-14,31.6,30.6,29.8,29.6,28.9,28.1,95,93,91,30.47,30.34,5,0,7,0.00
2013-12-15,34.5,32.6,31.3,33.0,31.2,29.5,96,94,92,30.58,30.46,7,0,10,0.00
2013-12-16,34.8,33.5,32.2,34.0,32.6,31.2,97,96,96,30.68,30.57,4,0,6,0.00
2013-12-17,33.3,32.4,31.3,32.2,31.3,30.3,97,96,94,30.67,30.53,6,2,10,0.00
2013-12-18,31.8,29.9,28.4,30.5,28.6,26.9,95,95,94,30.53,30.33,6,2,9,0.00
2013-12-19,30.2,28.7,27.3,29.2,27.4,25.8,96,95,94,30.33,30.18,7,2,12,0.00
2013-12-20,31.2,29.4,28.3,30.3,28.6,27.5,97,97,96,30.49,30.24,6,2,9,0.00
2013-12-21,42.1,32.8,27.4,36.4,30.8,26.5,98,92,79,30.64,30.48,5,0,8,0.01
2013-12-22,33.6,31.7,30.6,32.6,30.7,29.6,97,96,95,30.59,30.34,6,1,10,0.00
2013-12-23,38.8,35.8,33.5,37.5,34.6,32.5,97,95,94,30.34,30.29,5,0,8,0.00
2013-12-24,39.8,36.8,32.4,38.9,35.8,31.1,98,96,91,30.29,30.01,9,1,10,0.01
2013-12-25,48.7,40.4,31.7,38.4,34.2,29.5,97,79,61,30.01,29.76,11,3,16,0.00
2013-12-26,45.8,41.8,36.6,42.7,38.2,33.3,91,87,78,29.77,29.59,9,3,17,0.06
2013-12-27,52.9,45.2,36.2,44.6,41.2,33.8,92,86,72,30.00,29.68,8,1,12,0.02
2013-12-28,44.8,39.9,33.6,42.7,38.3,31.6,97,94,89,30.05,29.97,8,1,13,0.01
2013-12-29,45.1,39.5,35.4,42.0,38.0,34.1,97,94,88,30.22,29.96,6,1,9,0.01
2013-12-30,45.0,41.7,36.4,43.1,39.4,34.3,96,91,86,30.36,30.21,4,0,6,0.02
2013-12-31,38.4,36.6,34.5,37.6,35.4,33.2,97,95,93,30.32,30.22,7,1,12,0.00
2014-1-1,38.7,36.9,35.4,35.8,34.9,33.3,97,92,89,30.22,30.13,8,2,12,0.00
2014-1-2,40.8,38.1,33.9,37.5,35.5,31.8,95,90,85,30.13,29.96,7,2,12,0.00